• In Österreich
  • Länderverzeichnis
  • Für 7 Tage
  • Wassertemperatur
  • Satellitenkarten
  • Wetterkarte
  • News
  • Widgets
  • user-avatar
    Anmelden

    Stündliche Wetter Prutz

    Heute, 25 Februar, Sonntag

    Zeit Temperatur Niederschläge Wind Luftdruck Luftfeuchtigkeit
    00:00 -7°C° 0 mm 1 m/S 627 mmHg 94%
    01:00 -8°C° 0 mm 1 m/S 627 mmHg 94%
    02:00 -8°C° 0 mm 1 m/S 627 mmHg 93%
    03:00 -9°C° 0 mm 1 m/S 626 mmHg 93%
    04:00 -9°C° 0 mm 1 m/S 626 mmHg 93%
    05:00 -10°C° 0 mm 1 m/S 626 mmHg 93%
    06:00 -10°C° 0 mm 1 m/S 626 mmHg 92%
    07:00 -11°C° 0 mm 1 m/S 626 mmHg 92%
    08:00 -10°C° 0 mm 1 m/S 627 mmHg 89%
    09:00 -10°C° 0 mm 2 m/S 627 mmHg 85%
    10:00 -9°C° 0 mm 2 m/S 627 mmHg 82%
    11:00 -9°C° 0 mm 2 m/S 627 mmHg 81%
    12:00 -8°C° 0 mm 2 m/S 627 mmHg 79%
    13:00 -9°C° 0 mm 3 m/S 627 mmHg 77%
    14:00 -9°C° 0,1 mm 3 m/S 627 mmHg 79%
    15:00 -10°C° 0,1 mm 3 m/S 627 mmHg 81%
    16:00 -12°C° 0,1 mm 3 m/S 626 mmHg 83%
    17:00 -13°C° 0,1 mm 2 m/S 626 mmHg 86%
    18:00 -15°C° 0,1 mm 2 m/S 626 mmHg 89%
    19:00 -17°C° 0,1 mm 2 m/S 625 mmHg 92%
    20:00 -18°C° 0 mm 2 m/S 625 mmHg 91%
    21:00 -17°C° 0 mm 1 m/S 625 mmHg 90%
    22:00 -18°C° 0 mm 1 m/S 625 mmHg 89%
    23:00 -18°C° 0 mm 1 m/S 625 mmHg 88%

    Morgen, 26 Februar, Montag

    Zeit Temperatur Niederschläge Wind Luftdruck Luftfeuchtigkeit
    00:00 -19°C° 0 mm 1 m/S 624 mmHg 86%
    01:00 -19°C° 0 mm 1 m/S 624 mmHg 85%
    02:00 -20°C° 0 mm 1 m/S 624 mmHg 85%
    03:00 -20°C° 0 mm 1 m/S 624 mmHg 85%
    04:00 -21°C° 0 mm 1 m/S 623 mmHg 85%
    05:00 -21°C° 0 mm 1 m/S 623 mmHg 85%
    06:00 -21°C° 0 mm 1 m/S 623 mmHg 86%
    07:00 -22°C° 0 mm 1 m/S 623 mmHg 87%
    08:00 -20°C° 0 mm 1 m/S 624 mmHg 84%
    09:00 -20°C° 0 mm 2 m/S 624 mmHg 81%
    10:00 -18°C° 0 mm 2 m/S 625 mmHg 78%
    11:00 -17°C° 0 mm 2 m/S 625 mmHg 77%
    12:00 -17°C° 0 mm 2 m/S 625 mmHg 75%
    13:00 -17°C° 0 mm 3 m/S 625 mmHg 74%
    14:00 -17°C° 0,1 mm 3 m/S 625 mmHg 75%
    15:00 -17°C° 0,1 mm 3 m/S 624 mmHg 77%
    16:00 -17°C° 0,1 mm 3 m/S 624 mmHg 79%
    17:00 -19°C° 0 mm 3 m/S 624 mmHg 83%
    18:00 -19°C° 0 mm 2 m/S 624 mmHg 87%
    19:00 -21°C° 0 mm 2 m/S 623 mmHg 91%
    20:00 -21°C° 0 mm 2 m/S 623 mmHg 91%
    21:00 -20°C° 0 mm 1 m/S 623 mmHg 91%
    22:00 -21°C° 0 mm 1 m/S 623 mmHg 91%
    23:00 -21°C° 0 mm 1 m/S 623 mmHg 89%

    übermorgen, 27 Februar, Dienstag

    Zeit Temperatur Niederschläge Wind Luftdruck Luftfeuchtigkeit
    00:00 -22°C° 0 mm 1 m/S 622 mmHg 88%
    01:00 -22°C° 0 mm 1 m/S 622 mmHg 87%
    02:00 -22°C° 0 mm 1 m/S 622 mmHg 85%
    03:00 -22°C° 0 mm 1 m/S 622 mmHg 84%
    04:00 -22°C° 0 mm 1 m/S 621 mmHg 83%
    05:00 -22°C° 0 mm 1 m/S 621 mmHg 83%
    06:00 -23°C° 0 mm 1 m/S 621 mmHg 82%
    07:00 -23°C° 0 mm 1 m/S 621 mmHg 82%
    08:00 -20°C° 0 mm 1 m/S 622 mmHg 78%
    09:00 -18°C° 0 mm 1 m/S 622 mmHg 74%
    10:00 -16°C° 0 mm 1 m/S 623 mmHg 70%
    11:00 -15°C° 0 mm 1 m/S 623 mmHg 70%
    12:00 -14°C° 0 mm 1 m/S 623 mmHg 69%
    13:00 -13°C° 0 mm 1 m/S 623 mmHg 68%
    14:00 -15°C° 0,1 mm 2 m/S 623 mmHg 71%
    15:00 -15°C° 0,1 mm 2 m/S 623 mmHg 75%
    16:00 -15°C° 0,1 mm 2 m/S 623 mmHg 78%
    17:00 -14°C° 0,1 mm 1 m/S 623 mmHg 83%
    18:00 -16°C° 0,1 mm 1 m/S 623 mmHg 88%
    19:00 -17°C° 0,1 mm 1 m/S 622 mmHg 93%
    20:00 -18°C° 0 mm 1 m/S 622 mmHg 93%
    21:00 -19°C° 0 mm 1 m/S 622 mmHg 92%
    22:00 -19°C° 0 mm 1 m/S 622 mmHg 91%
    23:00 -19°C° 0 mm 1 m/S 622 mmHg 89%

    28 Februar, Mittwoch

    Zeit Temperatur Niederschläge Wind Luftdruck Luftfeuchtigkeit
    00:00 -20°C° 0 mm 1 m/S 623 mmHg 87%
    01:00 -23°C° 0 mm 2 m/S 623 mmHg 85%
    02:00 -23°C° 0 mm 2 m/S 623 mmHg 84%
    03:00 -23°C° 0 mm 2 m/S 622 mmHg 83%
    04:00 -23°C° 0 mm 2 m/S 622 mmHg 82%
    05:00 -23°C° 0 mm 2 m/S 623 mmHg 82%
    06:00 -23°C° 0 mm 2 m/S 623 mmHg 81%
    07:00 -23°C° 0 mm 2 m/S 623 mmHg 80%
    08:00 -17°C° 0 mm 1 m/S 624 mmHg 75%
    09:00 -14°C° 0 mm 1 m/S 625 mmHg 70%
    10:00 -11°C° 0 mm 1 m/S 626 mmHg 65%
    11:00 -10°C° 0 mm 1 m/S 626 mmHg 62%
    12:00 -9°C° 0 mm 1 m/S 627 mmHg 59%
    13:00 -9°C° 0 mm 2 m/S 627 mmHg 56%
    14:00 -9°C° 0 mm 2 m/S 627 mmHg 60%
    15:00 -9°C° 0 mm 2 m/S 626 mmHg 63%
    16:00 -8°C° 0 mm 2 m/S 626 mmHg 66%
    17:00 -10°C° 0 mm 2 m/S 626 mmHg 72%
    18:00 -13°C° 0 mm 2 m/S 626 mmHg 78%
    19:00 -14°C° 0 mm 2 m/S 625 mmHg 84%
    20:00 -14°C° 0 mm 2 m/S 625 mmHg 83%
    21:00 -15°C° 0 mm 3 m/S 626 mmHg 83%
    22:00 -15°C° 0 mm 3 m/S 626 mmHg 82%
    23:00 -15°C° 0 mm 3 m/S 626 mmHg 82%

    1 März, Donnerstag

    Zeit Temperatur Niederschläge Wind Luftdruck Luftfeuchtigkeit
    00:00 -15°C° 0 mm 3 m/S 625 mmHg 81%
    01:00 -15°C° 0 mm 3 m/S 625 mmHg 80%
    02:00 -14°C° 0 mm 3 m/S 625 mmHg 80%
    03:00 -14°C° 0 mm 3 m/S 625 mmHg 80%
    04:00 -13°C° 0 mm 3 m/S 625 mmHg 80%
    05:00 -13°C° 0 mm 3 m/S 625 mmHg 81%
    06:00 -12°C° 0 mm 3 m/S 624 mmHg 81%
    07:00 -12°C° 0 mm 3 m/S 624 mmHg 82%
    08:00 -9°C° 0,1 mm 3 m/S 624 mmHg 81%
    09:00 -8°C° 0,1 mm 3 m/S 624 mmHg 80%
    10:00 -7°C° 0,1 mm 4 m/S 625 mmHg 80%
    11:00 -5°C° 0,1 mm 3 m/S 624 mmHg 81%
    12:00 -4°C° 0,1 mm 3 m/S 624 mmHg 81%
    13:00 -2°C° 0,1 mm 3 m/S 624 mmHg 82%
    14:00 -4°C° 0,2 mm 3 m/S 624 mmHg 84%
    15:00 -4°C° 0,2 mm 3 m/S 623 mmHg 85%
    16:00 -4°C° 0,2 mm 3 m/S 623 mmHg 87%
    17:00 -4°C° 0,3 mm 3 m/S 622 mmHg 88%
    18:00 -5°C° 0,3 mm 3 m/S 622 mmHg 89%
    19:00 -6°C° 0,3 mm 3 m/S 622 mmHg 91%
    20:00 -6°C° 0,2 mm 3 m/S 622 mmHg 90%
    21:00 -6°C° 0,2 mm 3 m/S 622 mmHg 89%
    22:00 -6°C° 0,2 mm 3 m/S 622 mmHg 88%
    23:00 -4°C° 0,1 mm 2 m/S 621 mmHg 88%

    2 März, Freitag

    Zeit Temperatur Niederschläge Wind Luftdruck Luftfeuchtigkeit
    00:00 -4°C° 0,1 mm 2 m/S 621 mmHg 87%
    01:00 -4°C° 0,1 mm 2 m/S 621 mmHg 86%
    02:00 -4°C° 0 mm 2 m/S 620 mmHg 86%
    03:00 -5°C° 0 mm 2 m/S 620 mmHg 85%
    04:00 -5°C° 0 mm 2 m/S 619 mmHg 85%
    05:00 -4°C° 0 mm 2 m/S 619 mmHg 85%
    06:00 -4°C° 0 mm 2 m/S 619 mmHg 85%
    07:00 -4°C° 0 mm 2 m/S 619 mmHg 85%
    08:00 -2°C° 0,1 mm 2 m/S 619 mmHg 86%
    09:00 -1°C° 0,1 mm 2 m/S 620 mmHg 87%
    10:00 +2°C° 0,1 mm 2 m/S 620 mmHg 88%
    11:00 +2°C° 0,7 mm 2 m/S 620 mmHg 90%
    12:00 +3°C° 0,7 mm 1 m/S 620 mmHg 92%
    13:00 +2°C° 0,7 mm 1 m/S 620 mmHg 93%
    14:00 +3°C° 0,4 mm 1 m/S 620 mmHg 93%
    15:00 +3°C° 0,4 mm 1 m/S 620 mmHg 92%
    16:00 +3°C° 0,4 mm 1 m/S 620 mmHg 91%
    17:00 +2°C° 0,1 mm 1 m/S 620 mmHg 92%
    18:00 0°C° 0,1 mm 1 m/S 620 mmHg 94%
    19:00 -1°C° 0,1 mm 1 m/S 620 mmHg 95%
    20:00 -1°C° 0,1 mm 1 m/S 620 mmHg 95%
    21:00 -1°C° 0,1 mm 1 m/S 620 mmHg 94%
    22:00 -1°C° 0,1 mm 1 m/S 620 mmHg 94%
    23:00 -1°C° 0,1 mm 1 m/S 620 mmHg 93%
    Mehr zeigen